Year,Month,Day,Hour,Minute,Value (Times are PST for temperature in C)
2011,07,25,00,00,18.70
2011,07,25,00,01,18.70
2011,07,25,00,02,18.60
2011,07,25,00,03,18.50
2011,07,25,00,04,18.50
2011,07,25,00,05,18.50
2011,07,25,00,06,18.50
2011,07,25,00,07,18.60
2011,07,25,00,08,18.60
2011,07,25,00,09,18.70
2011,07,25,00,10,18.70
2011,07,25,00,11,18.70
2011,07,25,00,12,18.70
2011,07,25,00,13,18.70
2011,07,25,00,14,18.70
2011,07,25,00,15,18.60
2011,07,25,00,16,18.60
2011,07,25,00,17,18.50
2011,07,25,00,18,18.50
2011,07,25,00,19,18.40
2011,07,25,00,20,18.40
2011,07,25,00,21,18.40
2011,07,25,00,22,18.30
2011,07,25,00,23,18.30
2011,07,25,00,24,18.30
2011,07,25,00,25,18.20
2011,07,25,00,26,18.20
2011,07,25,00,27,18.20
2011,07,25,00,28,18.10
2011,07,25,00,29,18.10
2011,07,25,00,30,18.00
2011,07,25,00,31,18.00
2011,07,25,00,32,17.90
2011,07,25,00,33,17.90
2011,07,25,00,34,17.90
2011,07,25,00,35,17.80
2011,07,25,00,36,17.80
2011,07,25,00,37,17.80
2011,07,25,00,38,17.80
2011,07,25,00,39,17.80
2011,07,25,00,40,17.80
2011,07,25,00,41,17.70
2011,07,25,00,42,17.70
2011,07,25,00,43,17.70
2011,07,25,00,44,17.70
2011,07,25,00,45,17.70
2011,07,25,00,46,17.70
2011,07,25,00,47,17.70
2011,07,25,00,48,17.70
2011,07,25,00,49,17.80
2011,07,25,00,50,17.80
2011,07,25,00,51,17.80
2011,07,25,00,52,17.70
2011,07,25,00,53,17.70
2011,07,25,00,54,17.70
2011,07,25,00,55,17.70
2011,07,25,00,56,17.70
2011,07,25,00,57,17.70
2011,07,25,00,58,17.70
2011,07,25,00,59,17.70
2011,07,25,01,00,17.70
2011,07,25,01,01,17.70
2011,07,25,01,02,17.70
2011,07,25,01,03,17.70
2011,07,25,01,04,17.70
2011,07,25,01,05,17.70
2011,07,25,01,06,17.70
2011,07,25,01,07,17.80
2011,07,25,01,08,17.80
2011,07,25,01,09,17.80
2011,07,25,01,10,17.80
2011,07,25,01,11,17.70
2011,07,25,01,12,17.70
2011,07,25,01,13,17.70
2011,07,25,01,14,17.70
2011,07,25,01,15,17.70
2011,07,25,01,16,17.70
2011,07,25,01,17,17.70
2011,07,25,01,18,17.70
2011,07,25,01,19,17.70
2011,07,25,01,20,17.70
2011,07,25,01,21,17.60
2011,07,25,01,22,17.60
2011,07,25,01,23,17.60
2011,07,25,01,24,17.60
2011,07,25,01,25,17.50
2011,07,25,01,26,17.50
2011,07,25,01,27,17.50
2011,07,25,01,28,17.50
2011,07,25,01,29,17.40
2011,07,25,01,30,17.50
2011,07,25,01,31,17.40
2011,07,25,01,32,17.40
2011,07,25,01,33,17.50
2011,07,25,01,34,17.50
2011,07,25,01,35,17.50
2011,07,25,01,36,17.50
2011,07,25,01,37,17.50
2011,07,25,01,38,17.50
2011,07,25,01,39,17.50
2011,07,25,01,40,17.50
2011,07,25,01,41,17.50
2011,07,25,01,42,17.50
2011,07,25,01,43,17.50
2011,07,25,01,44,17.50
2011,07,25,01,45,17.50
2011,07,25,01,46,17.50
2011,07,25,01,47,17.50
2011,07,25,01,48,17.50
2011,07,25,01,49,17.50
2011,07,25,01,50,17.40
2011,07,25,01,51,17.40
2011,07,25,01,52,17.40
2011,07,25,01,53,17.40
2011,07,25,01,54,17.40
2011,07,25,01,55,17.40
2011,07,25,01,56,17.30
2011,07,25,01,57,17.30
2011,07,25,01,58,17.30
2011,07,25,01,59,17.30
2011,07,25,02,00,17.30
2011,07,25,02,01,17.30
2011,07,25,02,02,17.30
2011,07,25,02,03,17.30
2011,07,25,02,04,17.30
2011,07,25,02,05,17.30
2011,07,25,02,06,17.30
2011,07,25,02,07,17.40
2011,07,25,02,08,17.50
2011,07,25,02,09,17.70
2011,07,25,02,10,17.80
2011,07,25,02,11,17.90
2011,07,25,02,12,17.90
2011,07,25,02,13,18.00
2011,07,25,02,14,18.00
2011,07,25,02,15,18.00
2011,07,25,02,16,18.00
2011,07,25,02,17,17.90
2011,07,25,02,18,17.90
2011,07,25,02,19,17.80
2011,07,25,02,20,17.80
2011,07,25,02,21,17.70
2011,07,25,02,22,17.70
2011,07,25,02,23,17.70
2011,07,25,02,24,17.70
2011,07,25,02,25,17.60
2011,07,25,02,26,17.60
2011,07,25,02,27,17.60
2011,07,25,02,28,17.60
2011,07,25,02,29,17.60
2011,07,25,02,30,17.50
2011,07,25,02,31,17.50
2011,07,25,02,32,17.50
2011,07,25,02,33,17.40
2011,07,25,02,34,17.40
2011,07,25,02,35,17.40
2011,07,25,02,36,17.40
2011,07,25,02,37,17.40
2011,07,25,02,38,17.40
2011,07,25,02,39,17.40
2011,07,25,02,40,17.40
2011,07,25,02,41,17.50
2011,07,25,02,42,17.50
2011,07,25,02,43,17.50
2011,07,25,02,44,17.60
2011,07,25,02,45,17.60
2011,07,25,02,46,17.60
2011,07,25,02,47,17.60
2011,07,25,02,48,17.70
2011,07,25,02,49,17.70
2011,07,25,02,50,17.70
2011,07,25,02,51,17.70
2011,07,25,02,52,17.70
2011,07,25,02,53,17.80
2011,07,25,02,54,17.80
2011,07,25,02,55,17.80
2011,07,25,02,56,17.80
2011,07,25,02,57,17.80
2011,07,25,02,58,17.80
2011,07,25,02,59,17.80
2011,07,25,03,00,17.80
2011,07,25,03,01,17.80
2011,07,25,03,02,17.80
2011,07,25,03,03,17.80
2011,07,25,03,04,17.80
2011,07,25,03,05,17.70
2011,07,25,03,06,17.70
2011,07,25,03,07,17.70
2011,07,25,03,08,17.70
2011,07,25,03,09,17.70
2011,07,25,03,10,17.70
2011,07,25,03,11,17.70
2011,07,25,03,12,17.70
2011,07,25,03,13,17.70
2011,07,25,03,14,17.70
2011,07,25,03,15,17.70
2011,07,25,03,16,17.60
2011,07,25,03,17,17.60
2011,07,25,03,18,17.60
2011,07,25,03,19,17.70
2011,07,25,03,20,17.70
2011,07,25,03,21,17.80
2011,07,25,03,22,17.90
2011,07,25,03,23,18.00
2011,07,25,03,24,18.10
2011,07,25,03,25,18.10
2011,07,25,03,26,18.20
2011,07,25,03,27,18.20
2011,07,25,03,28,18.20
2011,07,25,03,29,18.20
2011,07,25,03,30,18.20
2011,07,25,03,31,18.20
2011,07,25,03,32,18.20
2011,07,25,03,33,18.20
2011,07,25,03,34,18.20
2011,07,25,03,35,18.20
2011,07,25,03,36,18.20
2011,07,25,03,37,18.20
2011,07,25,03,38,18.20
2011,07,25,03,39,18.10
2011,07,25,03,40,18.10
2011,07,25,03,41,18.10
2011,07,25,03,42,18.10
2011,07,25,03,43,18.10
2011,07,25,03,44,18.10
2011,07,25,03,45,18.00
2011,07,25,03,46,18.00
2011,07,25,03,47,17.90
2011,07,25,03,48,17.90
2011,07,25,03,49,17.90
2011,07,25,03,50,17.90
2011,07,25,03,51,17.90
2011,07,25,03,52,17.90
2011,07,25,03,53,17.90
2011,07,25,03,54,17.80
2011,07,25,03,55,17.80
2011,07,25,03,56,17.80
2011,07,25,03,57,17.80
2011,07,25,03,58,17.80
2011,07,25,03,59,17.80
2011,07,25,04,00,17.80
2011,07,25,04,01,17.80
2011,07,25,04,02,17.80
2011,07,25,04,03,17.90
2011,07,25,04,04,17.90
2011,07,25,04,05,17.90
2011,07,25,04,06,18.00
2011,07,25,04,07,18.00
2011,07,25,04,08,18.00
2011,07,25,04,09,18.10
2011,07,25,04,10,18.10
2011,07,25,04,11,18.10
2011,07,25,04,12,18.10
2011,07,25,04,13,18.10
2011,07,25,04,14,18.10
2011,07,25,04,15,18.10
2011,07,25,04,16,18.20
2011,07,25,04,17,18.20
2011,07,25,04,18,18.10
2011,07,25,04,19,18.10
2011,07,25,04,20,18.10
2011,07,25,04,21,18.10
2011,07,25,04,22,18.10
2011,07,25,04,23,18.10
2011,07,25,04,24,18.10
2011,07,25,04,25,18.10
2011,07,25,04,26,18.00
2011,07,25,04,27,18.00
2011,07,25,04,28,18.00
2011,07,25,04,29,18.00
2011,07,25,04,30,18.00
2011,07,25,04,31,18.00
2011,07,25,04,32,18.00
2011,07,25,04,33,18.00
2011,07,25,04,34,18.00
2011,07,25,04,35,17.90
2011,07,25,04,36,17.90
2011,07,25,04,37,17.90
2011,07,25,04,38,17.80
2011,07,25,04,39,17.70
2011,07,25,04,40,17.70
2011,07,25,04,41,17.60
2011,07,25,04,42,17.60
2011,07,25,04,43,17.60
2011,07,25,04,44,17.50
2011,07,25,04,45,17.50
2011,07,25,04,46,17.50
2011,07,25,04,47,17.50
2011,07,25,04,48,17.50
2011,07,25,04,49,17.50
2011,07,25,04,50,17.50
2011,07,25,04,51,17.40
2011,07,25,04,52,17.40
2011,07,25,04,53,17.40
2011,07,25,04,54,17.40
2011,07,25,04,55,17.40
2011,07,25,04,56,17.40
2011,07,25,04,57,17.40
2011,07,25,04,58,17.40
2011,07,25,04,59,17.30
2011,07,25,05,00,17.30
2011,07,25,05,01,17.30
2011,07,25,05,02,17.30
2011,07,25,05,03,17.30
2011,07,25,05,04,17.30
2011,07,25,05,05,17.30
2011,07,25,05,06,17.30
2011,07,25,05,07,17.30
2011,07,25,05,08,17.30
2011,07,25,05,09,17.30
2011,07,25,05,10,17.30
2011,07,25,05,11,17.30
2011,07,25,05,12,17.20
2011,07,25,05,13,17.20
2011,07,25,05,14,17.20
2011,07,25,05,15,17.20
2011,07,25,05,16,17.10
2011,07,25,05,17,17.10
2011,07,25,05,18,17.10
2011,07,25,05,19,17.10
2011,07,25,05,20,17.00
2011,07,25,05,21,17.00
2011,07,25,05,22,16.90
2011,07,25,05,23,16.90
2011,07,25,05,24,16.90
2011,07,25,05,25,16.80
2011,07,25,05,26,16.80
2011,07,25,05,27,16.70
2011,07,25,05,28,16.70
2011,07,25,05,29,16.70
2011,07,25,05,30,16.60
2011,07,25,05,31,16.60
2011,07,25,05,32,16.50
2011,07,25,05,33,16.50
2011,07,25,05,34,16.50
2011,07,25,05,35,16.50
2011,07,25,05,36,16.50
2011,07,25,05,37,16.50
2011,07,25,05,38,16.50
2011,07,25,05,39,16.50
2011,07,25,05,40,16.50
2011,07,25,05,41,16.50
2011,07,25,05,42,16.60
2011,07,25,05,43,16.60
2011,07,25,05,44,16.60
2011,07,25,05,45,16.60
2011,07,25,05,46,16.60
2011,07,25,05,47,16.60
2011,07,25,05,48,16.60
2011,07,25,05,49,16.60
2011,07,25,05,50,16.60
2011,07,25,05,51,16.60
2011,07,25,05,52,16.60
2011,07,25,05,53,16.60
2011,07,25,05,54,16.50
2011,07,25,05,55,16.50
2011,07,25,05,56,16.50
2011,07,25,05,57,16.50
2011,07,25,05,58,16.40
2011,07,25,05,59,16.40
2011,07,25,06,00,16.40
2011,07,25,06,01,16.40
2011,07,25,06,02,16.40
2011,07,25,06,03,16.40
2011,07,25,06,04,16.40
2011,07,25,06,05,16.40
2011,07,25,06,06,16.40
2011,07,25,06,07,16.40
2011,07,25,06,08,16.40
2011,07,25,06,09,16.40
2011,07,25,06,10,16.40
2011,07,25,06,11,16.40
2011,07,25,06,12,16.40
2011,07,25,06,13,16.40
2011,07,25,06,14,16.50
2011,07,25,06,15,16.50
2011,07,25,06,16,16.50
2011,07,25,06,17,16.60
2011,07,25,06,18,16.60
2011,07,25,06,19,16.60
2011,07,25,06,20,16.60
2011,07,25,06,21,16.60
2011,07,25,06,22,16.60
2011,07,25,06,23,16.60
2011,07,25,06,24,16.60
2011,07,25,06,25,16.60
2011,07,25,06,26,16.60
2011,07,25,06,27,16.60
2011,07,25,06,28,16.60
2011,07,25,06,29,16.60
2011,07,25,06,30,16.70
2011,07,25,06,31,16.70
2011,07,25,06,32,16.70
2011,07,25,06,33,16.70
2011,07,25,06,34,16.70
2011,07,25,06,35,16.70
2011,07,25,06,36,16.70
2011,07,25,06,37,16.70
2011,07,25,06,38,16.70
2011,07,25,06,39,16.70
2011,07,25,06,40,16.80
2011,07,25,06,41,16.80
2011,07,25,06,42,16.80
2011,07,25,06,43,16.80
2011,07,25,06,44,16.90
2011,07,25,06,45,16.90
2011,07,25,06,46,16.90
2011,07,25,06,47,17.00
2011,07,25,06,48,17.00
2011,07,25,06,49,17.10
2011,07,25,06,50,17.10
2011,07,25,06,51,17.10
2011,07,25,06,52,17.20
2011,07,25,06,53,17.20
2011,07,25,06,54,17.30
2011,07,25,06,55,17.30
2011,07,25,06,56,17.30
2011,07,25,06,57,17.40
2011,07,25,06,58,17.40
2011,07,25,06,59,17.50
2011,07,25,07,00,17.50
2011,07,25,07,01,17.60
2011,07,25,07,02,17.60
2011,07,25,07,03,17.60
2011,07,25,07,04,17.70
2011,07,25,07,05,17.70
2011,07,25,07,06,17.70
2011,07,25,07,07,17.70
2011,07,25,07,08,17.80
2011,07,25,07,09,17.80
2011,07,25,07,10,17.80
2011,07,25,07,11,17.90
2011,07,25,07,12,17.90
2011,07,25,07,13,17.90
2011,07,25,07,14,17.90
2011,07,25,07,15,18.00
2011,07,25,07,16,18.00
2011,07,25,07,17,18.00
2011,07,25,07,18,18.00
2011,07,25,07,19,18.10
2011,07,25,07,20,18.10
2011,07,25,07,21,18.10
2011,07,25,07,22,18.10
2011,07,25,07,23,18.20
2011,07,25,07,24,18.20
2011,07,25,07,25,18.20
2011,07,25,07,26,18.20
2011,07,25,07,27,18.30
2011,07,25,07,28,18.30
2011,07,25,07,29,18.30
2011,07,25,07,30,18.40
2011,07,25,07,31,18.50
2011,07,25,07,32,18.50
2011,07,25,07,33,18.60
2011,07,25,07,34,18.70
2011,07,25,07,35,18.80
2011,07,25,07,36,18.80
2011,07,25,07,37,18.90
2011,07,25,07,38,19.00
2011,07,25,07,39,19.10
2011,07,25,07,40,19.10
2011,07,25,07,41,19.20
2011,07,25,07,42,19.30
2011,07,25,07,43,19.30
2011,07,25,07,44,19.30
2011,07,25,07,45,19.40
2011,07,25,07,46,19.40
2011,07,25,07,47,19.50
2011,07,25,07,48,19.50
2011,07,25,07,49,19.60
2011,07,25,07,50,19.60
2011,07,25,07,51,19.70
2011,07,25,07,52,19.70
2011,07,25,07,53,19.70
2011,07,25,07,54,19.80
2011,07,25,07,55,19.80
2011,07,25,07,56,19.80
2011,07,25,07,57,19.80
2011,07,25,07,58,19.90
2011,07,25,07,59,19.90
2011,07,25,08,00,19.90
2011,07,25,08,01,19.90
2011,07,25,08,02,19.90
2011,07,25,08,03,19.90
2011,07,25,08,04,19.90
2011,07,25,08,05,19.90
2011,07,25,08,06,19.80
2011,07,25,08,07,19.90
2011,07,25,08,08,19.90
2011,07,25,08,09,20.00
2011,07,25,08,10,20.10
2011,07,25,08,11,20.10
2011,07,25,08,12,20.20
2011,07,25,08,13,20.30
2011,07,25,08,14,20.30
2011,07,25,08,15,20.40
2011,07,25,08,16,20.50
2011,07,25,08,17,20.50
2011,07,25,08,18,20.60
2011,07,25,08,19,20.60
2011,07,25,08,20,20.60
2011,07,25,08,21,20.60
2011,07,25,08,22,20.60
2011,07,25,08,23,20.60
2011,07,25,08,24,20.50
2011,07,25,08,25,20.40
2011,07,25,08,26,20.40
2011,07,25,08,27,20.40
2011,07,25,08,28,20.40
2011,07,25,08,29,20.50
2011,07,25,08,30,20.50
2011,07,25,08,31,20.60
2011,07,25,08,32,20.60
2011,07,25,08,33,20.60
2011,07,25,08,34,20.50
2011,07,25,08,35,20.40
2011,07,25,08,36,20.30
2011,07,25,08,37,20.20
2011,07,25,08,38,20.10
2011,07,25,08,39,20.00
2011,07,25,08,40,19.90
2011,07,25,08,41,19.80
2011,07,25,08,42,19.70
2011,07,25,08,43,19.60
2011,07,25,08,44,19.60
2011,07,25,08,45,19.60
2011,07,25,08,46,19.60
2011,07,25,08,47,19.60
2011,07,25,08,48,19.60
2011,07,25,08,49,19.60
2011,07,25,08,50,19.60
2011,07,25,08,51,19.60
2011,07,25,08,52,19.60
2011,07,25,08,53,19.60
2011,07,25,08,54,19.70
2011,07,25,08,55,19.70
2011,07,25,08,56,19.70
2011,07,25,08,57,19.70
2011,07,25,08,58,19.80
2011,07,25,08,59,19.90
2011,07,25,09,00,19.90
2011,07,25,09,01,19.90
2011,07,25,09,02,19.90
2011,07,25,09,03,20.00
2011,07,25,09,04,19.90
2011,07,25,09,05,19.90
2011,07,25,09,06,19.80
2011,07,25,09,07,19.70
2011,07,25,09,08,19.70
2011,07,25,09,09,19.60
2011,07,25,09,10,19.50
2011,07,25,09,11,19.50
2011,07,25,09,12,19.40
2011,07,25,09,13,19.40
2011,07,25,09,14,19.40
2011,07,25,09,15,19.40
2011,07,25,09,16,19.40
2011,07,25,09,17,19.50
2011,07,25,09,18,19.50
2011,07,25,09,19,19.60
2011,07,25,09,20,19.60
2011,07,25,09,21,19.70
2011,07,25,09,22,19.80
2011,07,25,09,23,19.90
2011,07,25,09,24,19.90
2011,07,25,09,25,19.90
2011,07,25,09,26,20.00
2011,07,25,09,27,20.00
2011,07,25,09,28,20.10
2011,07,25,09,29,20.10
2011,07,25,09,30,20.10
2011,07,25,09,31,20.10
2011,07,25,09,32,20.00
2011,07,25,09,33,19.90
2011,07,25,09,34,19.80
2011,07,25,09,35,19.70
2011,07,25,09,36,19.70
2011,07,25,09,37,19.60
2011,07,25,09,38,19.60
2011,07,25,09,39,19.60
2011,07,25,09,40,19.60
2011,07,25,09,41,19.60
2011,07,25,09,42,19.50
2011,07,25,09,43,19.50
2011,07,25,09,44,19.40
2011,07,25,09,45,19.40
2011,07,25,09,46,19.30
2011,07,25,09,47,19.30
2011,07,25,09,48,19.30
2011,07,25,09,49,19.30
2011,07,25,09,50,19.30
2011,07,25,09,51,19.30
2011,07,25,09,52,19.30
2011,07,25,09,53,19.30
2011,07,25,09,54,19.30
2011,07,25,09,55,19.20
2011,07,25,09,56,19.20
2011,07,25,09,57,19.20
2011,07,25,09,58,19.10
2011,07,25,09,59,19.10
2011,07,25,10,00,19.00
2011,07,25,10,01,19.00
2011,07,25,10,02,18.90
2011,07,25,10,03,18.90
2011,07,25,10,04,19.00
2011,07,25,10,05,19.00
2011,07,25,10,06,19.00
2011,07,25,10,07,19.10
2011,07,25,10,08,19.10
2011,07,25,10,09,19.10
2011,07,25,10,10,19.10
2011,07,25,10,11,19.10
2011,07,25,10,12,19.10
2011,07,25,10,13,19.10
2011,07,25,10,14,19.10
2011,07,25,10,15,19.10
2011,07,25,10,16,19.10
2011,07,25,10,17,19.10
2011,07,25,10,18,19.10
2011,07,25,10,19,19.20
2011,07,25,10,20,19.20
2011,07,25,10,21,19.20
2011,07,25,10,22,19.20
2011,07,25,10,23,19.20
2011,07,25,10,24,19.30
2011,07,25,10,25,19.30
2011,07,25,10,26,19.40
2011,07,25,10,27,19.40
2011,07,25,10,28,19.40
2011,07,25,10,29,19.40
2011,07,25,10,30,19.40
2011,07,25,10,31,19.40
2011,07,25,10,32,19.40
2011,07,25,10,33,19.40
2011,07,25,10,34,19.40
2011,07,25,10,35,19.50
2011,07,25,10,36,19.50
2011,07,25,10,37,19.60
2011,07,25,10,38,19.70
2011,07,25,10,39,19.70
2011,07,25,10,40,19.80
2011,07,25,10,41,19.80
2011,07,25,10,42,19.80
2011,07,25,10,43,19.80
2011,07,25,10,44,19.80
2011,07,25,10,45,19.80
2011,07,25,10,46,19.80
2011,07,25,10,47,19.80
2011,07,25,10,48,19.80
2011,07,25,10,49,19.80
2011,07,25,10,50,19.90
2011,07,25,10,51,19.90
2011,07,25,10,52,20.00
2011,07,25,10,53,20.10
2011,07,25,10,54,20.20
2011,07,25,10,55,20.20
2011,07,25,10,56,20.20
2011,07,25,10,57,20.20
2011,07,25,10,58,20.20
2011,07,25,10,59,20.20
2011,07,25,11,00,20.10
2011,07,25,11,01,20.00
2011,07,25,11,02,19.90
2011,07,25,11,03,19.80
2011,07,25,11,04,19.70
2011,07,25,11,05,19.70
2011,07,25,11,06,19.60
2011,07,25,11,07,19.60
2011,07,25,11,08,19.50
2011,07,25,11,09,19.40
2011,07,25,11,10,19.40
2011,07,25,11,11,19.30
2011,07,25,11,12,19.30
2011,07,25,11,13,19.30
2011,07,25,11,14,19.20
2011,07,25,11,15,19.30
2011,07,25,11,16,19.40
2011,07,25,11,17,19.50
2011,07,25,11,18,19.70
2011,07,25,11,19,19.70
2011,07,25,11,20,19.80
2011,07,25,11,21,19.90
2011,07,25,11,22,20.00
2011,07,25,11,23,20.00
2011,07,25,11,24,20.20
2011,07,25,11,25,20.30
2011,07,25,11,26,20.30
2011,07,25,11,27,20.40
2011,07,25,11,28,20.50
2011,07,25,11,29,20.60
2011,07,25,11,30,20.60
2011,07,25,11,31,20.60
2011,07,25,11,32,20.60
2011,07,25,11,33,20.50
2011,07,25,11,34,20.40
2011,07,25,11,35,20.40
2011,07,25,11,36,20.30
2011,07,25,11,37,20.30
2011,07,25,11,38,20.20
2011,07,25,11,39,20.20
2011,07,25,11,40,20.10
2011,07,25,11,41,20.10
2011,07,25,11,42,20.00
2011,07,25,11,43,20.00
2011,07,25,11,44,20.00
2011,07,25,11,45,20.00
2011,07,25,11,46,20.00
2011,07,25,11,47,20.00
2011,07,25,11,48,20.10
2011,07,25,11,49,20.10
2011,07,25,11,50,20.10
2011,07,25,11,51,20.20
2011,07,25,11,52,20.20
2011,07,25,11,53,20.20
2011,07,25,11,54,20.30
2011,07,25,11,55,20.30
2011,07,25,11,56,20.30
2011,07,25,11,57,20.30
2011,07,25,11,58,20.30
2011,07,25,11,59,20.30
2011,07,25,12,00,20.30
2011,07,25,12,01,20.30
2011,07,25,12,02,20.30
2011,07,25,12,03,20.30
2011,07,25,12,04,20.30
2011,07,25,12,05,20.30
2011,07,25,12,06,20.30
2011,07,25,12,07,20.30
2011,07,25,12,08,20.30
2011,07,25,12,09,20.30
2011,07,25,12,10,20.30
2011,07,25,12,11,20.30
2011,07,25,12,12,20.40
2011,07,25,12,13,20.40
2011,07,25,12,14,20.50
2011,07,25,12,15,20.60
2011,07,25,12,16,20.70
2011,07,25,12,17,20.60
2011,07,25,12,18,20.60
2011,07,25,12,19,20.50
2011,07,25,12,20,20.50
2011,07,25,12,21,20.50
2011,07,25,12,22,20.50
2011,07,25,12,23,20.50
2011,07,25,12,24,20.60
2011,07,25,12,25,20.70
2011,07,25,12,26,20.80
2011,07,25,12,27,20.80
2011,07,25,12,28,20.90
2011,07,25,12,29,21.10
2011,07,25,12,30,21.20
2011,07,25,12,31,21.30
2011,07,25,12,32,21.40
2011,07,25,12,33,21.40
2011,07,25,12,34,21.40
2011,07,25,12,35,21.40
2011,07,25,12,36,21.40
2011,07,25,12,37,21.30
2011,07,25,12,38,21.40
2011,07,25,12,39,21.40
2011,07,25,12,40,21.40
2011,07,25,12,41,21.30
2011,07,25,12,42,21.20
2011,07,25,12,43,21.20
2011,07,25,12,44,21.30
2011,07,25,12,45,21.30
2011,07,25,12,46,21.30
2011,07,25,12,47,21.40
2011,07,25,12,48,21.30
2011,07,25,12,49,21.30
2011,07,25,12,50,21.30
2011,07,25,12,51,21.30
2011,07,25,12,52,21.40
2011,07,25,12,53,21.40
2011,07,25,12,54,21.40
2011,07,25,12,55,21.40
2011,07,25,12,56,21.40
2011,07,25,12,57,21.30
2011,07,25,12,58,21.30
2011,07,25,12,59,21.30
2011,07,25,13,00,21.40
2011,07,25,13,01,21.50
2011,07,25,13,02,21.60
2011,07,25,13,03,21.70
2011,07,25,13,04,21.70
2011,07,25,13,05,21.70
2011,07,25,13,06,21.70
2011,07,25,13,07,21.70
2011,07,25,13,08,21.70
2011,07,25,13,09,21.70
2011,07,25,13,10,21.70
2011,07,25,13,11,21.80
2011,07,25,13,12,21.80
2011,07,25,13,13,21.90
2011,07,25,13,14,21.90
2011,07,25,13,15,21.90
2011,07,25,13,16,21.80
2011,07,25,13,17,21.70
2011,07,25,13,18,21.60
2011,07,25,13,19,21.50
2011,07,25,13,20,21.50
2011,07,25,13,21,21.50
2011,07,25,13,22,21.50
2011,07,25,13,23,21.60
2011,07,25,13,24,21.60
2011,07,25,13,25,21.70
2011,07,25,13,26,21.70
2011,07,25,13,27,21.80
2011,07,25,13,28,21.90
2011,07,25,13,29,21.90
2011,07,25,13,30,22.00
2011,07,25,13,31,22.10
2011,07,25,13,32,22.30
2011,07,25,13,33,22.50
2011,07,25,13,34,22.60
2011,07,25,13,35,22.70
2011,07,25,13,36,22.60
2011,07,25,13,37,22.40
2011,07,25,13,38,22.20
2011,07,25,13,39,22.10
2011,07,25,13,40,21.80
2011,07,25,13,41,21.60
2011,07,25,13,42,21.50
2011,07,25,13,43,21.30
2011,07,25,13,44,21.20
2011,07,25,13,45,21.20
2011,07,25,13,46,21.10
2011,07,25,13,47,21.10
2011,07,25,13,48,21.10
2011,07,25,13,49,21.20
2011,07,25,13,50,21.20
2011,07,25,13,51,21.20
2011,07,25,13,52,21.30
2011,07,25,13,53,21.30
2011,07,25,13,54,21.30
2011,07,25,13,55,21.30
2011,07,25,13,56,21.30
2011,07,25,13,57,21.30
2011,07,25,13,58,21.30
2011,07,25,13,59,21.30
2011,07,25,14,00,21.30
2011,07,25,14,01,21.20
2011,07,25,14,02,21.30
2011,07,25,14,03,21.40
2011,07,25,14,04,21.50
2011,07,25,14,05,21.70
2011,07,25,14,06,21.70
2011,07,25,14,07,21.70
2011,07,25,14,08,21.70
2011,07,25,14,09,21.80
2011,07,25,14,10,21.80
2011,07,25,14,11,21.80
2011,07,25,14,12,21.80
2011,07,25,14,13,21.70
2011,07,25,14,14,21.60
2011,07,25,14,15,21.50
2011,07,25,14,16,21.60
2011,07,25,14,17,21.60
2011,07,25,14,18,21.60
2011,07,25,14,19,21.60
2011,07,25,14,20,21.60
2011,07,25,14,21,21.50
2011,07,25,14,22,21.40
2011,07,25,14,23,21.30
2011,07,25,14,24,21.20
2011,07,25,14,25,21.10
2011,07,25,14,26,21.10
2011,07,25,14,27,21.10
2011,07,25,14,28,21.20
2011,07,25,14,29,21.20
2011,07,25,14,30,21.20
2011,07,25,14,31,21.10
2011,07,25,14,32,21.10
2011,07,25,14,33,21.10
2011,07,25,14,34,21.10
2011,07,25,14,35,21.10
2011,07,25,14,36,21.10
2011,07,25,14,37,21.30
2011,07,25,14,38,21.50
2011,07,25,14,39,21.60
2011,07,25,14,40,21.80
2011,07,25,14,41,21.90
2011,07,25,14,42,21.90
2011,07,25,14,43,21.90
2011,07,25,14,44,22.00
2011,07,25,14,45,22.10
2011,07,25,14,46,22.00
2011,07,25,14,47,22.00
2011,07,25,14,48,22.10
2011,07,25,14,49,22.20
2011,07,25,14,50,22.30
2011,07,25,14,51,22.40
2011,07,25,14,52,22.40
2011,07,25,14,53,22.40
2011,07,25,14,54,22.30
2011,07,25,14,55,22.10
2011,07,25,14,56,22.00
2011,07,25,14,57,21.90
2011,07,25,14,58,21.90
2011,07,25,14,59,21.90
2011,07,25,15,00,21.90
2011,07,25,15,01,21.90
2011,07,25,15,02,21.80
2011,07,25,15,03,21.80
2011,07,25,15,04,21.80
2011,07,25,15,05,21.80
2011,07,25,15,06,21.70
2011,07,25,15,07,21.70
2011,07,25,15,08,21.60
2011,07,25,15,09,21.60
2011,07,25,15,10,21.60
2011,07,25,15,11,21.50
2011,07,25,15,12,21.40
2011,07,25,15,13,21.40
2011,07,25,15,14,21.40
2011,07,25,15,15,21.40
2011,07,25,15,16,21.40
2011,07,25,15,17,21.40
2011,07,25,15,18,21.50
2011,07,25,15,19,21.40
2011,07,25,15,20,21.40
2011,07,25,15,21,21.30
2011,07,25,15,22,21.30
2011,07,25,15,23,21.30
2011,07,25,15,24,21.30
2011,07,25,15,25,21.40
2011,07,25,15,26,21.40
2011,07,25,15,27,21.40
2011,07,25,15,28,21.40
2011,07,25,15,29,21.40
2011,07,25,15,30,21.40
2011,07,25,15,31,21.40
2011,07,25,15,32,21.50
2011,07,25,15,33,21.60
2011,07,25,15,34,21.60
2011,07,25,15,35,21.70
2011,07,25,15,36,21.70
2011,07,25,15,37,21.70
2011,07,25,15,38,21.70
2011,07,25,15,39,21.80
2011,07,25,15,40,21.80
2011,07,25,15,41,21.80
2011,07,25,15,42,21.70
2011,07,25,15,43,21.70
2011,07,25,15,44,21.70
2011,07,25,15,45,21.80
2011,07,25,15,46,21.80
2011,07,25,15,47,21.80
2011,07,25,15,48,21.80
2011,07,25,15,49,21.80
2011,07,25,15,50,21.80
2011,07,25,15,51,21.80
2011,07,25,15,52,21.80
2011,07,25,15,53,21.70
2011,07,25,15,54,21.60
2011,07,25,15,55,21.60
2011,07,25,15,56,21.60
2011,07,25,15,57,21.60
2011,07,25,15,58,21.70
2011,07,25,15,59,21.70
2011,07,25,16,00,21.60
2011,07,25,16,01,21.60
2011,07,25,16,02,21.60
2011,07,25,16,03,21.60
2011,07,25,16,04,21.70
2011,07,25,16,05,21.80
2011,07,25,16,06,21.80
2011,07,25,16,07,21.90
2011,07,25,16,08,21.90
2011,07,25,16,09,22.00
2011,07,25,16,10,22.10
2011,07,25,16,11,22.10
2011,07,25,16,12,22.10
2011,07,25,16,13,22.00
2011,07,25,16,14,21.90
2011,07,25,16,15,21.90
2011,07,25,16,16,22.00
2011,07,25,16,17,22.00
2011,07,25,16,18,22.00
2011,07,25,16,19,22.00
2011,07,25,16,20,22.00
2011,07,25,16,21,21.90
2011,07,25,16,22,21.90
2011,07,25,16,23,21.80
2011,07,25,16,24,21.80
2011,07,25,16,25,21.80
2011,07,25,16,26,21.80
2011,07,25,16,27,21.90
2011,07,25,16,28,21.90
2011,07,25,16,29,21.90
2011,07,25,16,30,22.00
2011,07,25,16,31,22.10
2011,07,25,16,32,22.20
2011,07,25,16,33,22.20
2011,07,25,16,34,22.10
2011,07,25,16,35,22.20
2011,07,25,16,36,22.30
2011,07,25,16,37,22.30
2011,07,25,16,38,22.20
2011,07,25,16,39,22.10
2011,07,25,16,40,22.00
2011,07,25,16,41,21.90
2011,07,25,16,42,21.90
2011,07,25,16,43,21.80
2011,07,25,16,44,21.80
2011,07,25,16,45,21.70
2011,07,25,16,46,21.60
2011,07,25,16,47,21.50
2011,07,25,16,48,21.50
2011,07,25,16,49,21.40
2011,07,25,16,50,21.40
2011,07,25,16,51,21.30
2011,07,25,16,52,21.20
2011,07,25,16,53,21.10
2011,07,25,16,54,21.10
2011,07,25,16,55,21.10
2011,07,25,16,56,21.10
2011,07,25,16,57,21.00
2011,07,25,16,58,21.00
2011,07,25,16,59,20.90
2011,07,25,17,00,20.90
2011,07,25,17,01,20.90
2011,07,25,17,02,20.90
2011,07,25,17,03,20.90
2011,07,25,17,04,20.90
2011,07,25,17,05,20.80
2011,07,25,17,06,20.70
2011,07,25,17,07,20.70
2011,07,25,17,08,20.70
2011,07,25,17,09,20.70
2011,07,25,17,10,20.70
2011,07,25,17,11,20.70
2011,07,25,17,12,20.70
2011,07,25,17,13,20.70
2011,07,25,17,14,20.70
2011,07,25,17,15,20.70
2011,07,25,17,16,20.70
2011,07,25,17,17,20.70
2011,07,25,17,18,20.60
2011,07,25,17,19,20.60